map of BOJ home
BOJ - Airport
Location
City:  Burgas, Burgas, Bulgaria
Name:Burgas International Airport
Old (Alt.):Sarafovo
ICAO:LBBG
IATA:BOJ

Details
Type:Airport (Aerodrome, Airfield)
Use:Public/Civil, International (customs port of entry)
Latitude:4234'10"N (42.569583)
Longitude:2730'55"E (27.515236)
Datum:WGS 1984
Elevation:135 ft (41 m)
Variation:5.67E (WMM2015v2 magnetic declination)
0.12 annual change
Runways:1
Longest:10499 × 148 ft (3200 × 45 m), paved

Time
Time Zone:UTC+2 (DST+3)
Local Time:

Weather
METAR:LBBG 041400Z 11008KT CAVOK 14/08 Q1020 NOSIG
TAF:LBBG 041100Z 0412/0512 13008KT CAVOK
BECMG 0416/0418 04008KT 5000 BR SCT010
BECMG 0422/0424 3000 BR BKN007
TEMPO 0503/0508 1500 BR SCT003 BKN005
BECMG 0508/0510 06014KT 6000 BKN015

Related Locations
Nearby:
Farthest:CHT: 11231 mi / 18075 km
Waitangi [Tuuta], CIT, NZ

Find:

   beyond  
but within

Other Information
Maps:
NOTAMs:
Links:
Sources:

  
  • flag of Bulgaria
  

Sectional Chart

Flight Planning
at skyvector.com

Satellite Image

Google Maps Satellite view

 

Copyright © 2004-2019 Karl L. Swartz. All rights reserved.
The Great Circle Mapper name and logo are trademarks of the Great Circle Mapper.
All other trademarks mentioned herein belong to their respective owners.
Please see credits for attibutions and further copyright information.

  Follow gcmap on Facebook Follow gcmap on Twitter GCmap on LinkedIn

hCard Microformat

Geo Microformat